Wind_Speed
20 27 26 26 26 25 23 22 20 20 20 22 24 26 25 25 23 22 22 21 21 21 19 19 16 18 15 17 17 16 16 14 18 16 19 16 18 23 23 22 24 23 24
28 31 28 26 24 24 24 23 21 20 20 22 24 25 25 24 23 23 21 21 20 21 20 19 16 16 15 16 16 15 17 20 22 21 20 17 15 21 23 23 26 24 23
33 31 28 25 24 24 23 23 21 20 20 21 23 25 26 25 23 23 21 20 21 20 20 18 17 17 17 17 18 19 22 23 23 23 17 17 15 20 23 24 25 24 23
35 33 30 27 25 24 24 24 22 21 20 21 21 23 25 25 23 21 20 20 21 21 20 18 18 19 19 19 20 21 22 21 22 23 21 23 17 20 23 23 23 24 24
35 34 31 29 27 25 24 24 23 22 21 20 21 22 22 23 23 21 21 21 20 20 18 18 18 19 20 21 21 21 22 23 23 24 26 22 22 21 22 23 24 24 24
36 35 33 31 28 26 25 24 23 22 21 21 21 21 21 21 21 21 21 20 20 20 18 18 19 21 20 20 21 23 24 23 24 24 24 23 21 21 21 23 23 21 22
38 35 33 31 30 28 27 25 23 22 21 21 20 19 19 19 19 19 19 19 19 20 18 18 19 21 21 22 23 23 24 22 23 24 23 22 23 21 22 22 20 20 21
37 35 34 32 32 31 28 26 24 23 22 21 20 20 19 18 17 17 17 18 18 17 16 19 21 22 24 24 23 22 23 22 21 22 24 24 22 21 20 21 20 21 22
33 33 33 32 31 31 29 26 25 24 23 22 21 21 20 18 16 16 17 17 17 15 16 20 22 24 25 25 25 22 21 21 21 21 22 23 20 20 20 20 20 20 20
31 32 32 32 30 29 28 26 25 24 22 22 22 21 20 18 15 16 18 15 17 17 18 23 24 26 26 24 24 22 19 20 20 20 20 21 20 20 18 19 20 20 19
24 32 33 31 31 30 28 27 25 23 22 22 22 21 21 19 17 16 16 18 16 17 18 23 25 27 25 23 22 20 20 19 18 19 20 20 20 19 19 17 17 18 17
14 13 20 26 28 30 28 28 27 25 25 25 24 23 22 20 18 16 18 17 18 19 18 21 24 26 22 22 20 20 20 18 18 19 19 20 20 19 18 16 15 15 17
17 19 18 16 20 26 28 29 28 27 26 26 25 25 23 21 19 19 21 17 19 21 21 22 22 25 24 21 19 20 19 20 20 19 21 20 19 19 16 15 16 16 16
18 21 28 21 22 23 25 26 30 30 28 28 28 27 26 24 21 21 24 19 25 20 19 21 23 22 21 20 18 19 21 23 23 22 22 21 20 20 18 16 15 15 15
25 23 27 30 26 24 22 19 22 25 24 28 29 29 28 27 26 23 24 23 23 22 19 20 22 21 21 20 19 19 20 22 22 22 23 22 20 20 19 15 16 15 15
28 35 35 31 35 32 29 27 24 24 22 22 29 32 31 29 29 25 24 24 25 24 21 20 20 21 20 20 22 20 20 21 19 22 23 20 20 19 16 17 16 17 16
27 33 38 38 40 40 35 30 29 29 26 24 26 33 33 31 30 28 25 26 26 26 22 20 19 18 18 19 21 21 20 20 17 19 17 16 18 18 16 15 16 17 18
37 31 33 39 43 47 46 39 31 27 27 26 26 28 35 33 32 30 26 28 27 24 24 23 19 19 18 19 20 21 18 17 20 20 20 22 25 23 19 16 16 16 17
38 39 36 35 40 47 47 43 39 31 27 28 25 28 33 36 33 32 29 29 29 25 25 24 22 21 21 18 17 17 19 16 19 23 19 20 22 24 20 18 16 16 17
35 38 37 40 39 44 42 36 34 30 27 28 29 30 31 35 37 34 32 29 29 26 25 26 24 22 21 20 15 13 13 15 17 20 17 21 27 25 20 19 20 18 18
36 37 37 36 38 34 33 32 31 33 32 31 32 29 33 34 37 37 34 31 29 29 27 28 26 24 18 19 17 9 8 10 14 18 20 22 30 25 21 20 22 21 21
34 37 33 34 35 40 35 39 33 34 31 30 29 31 31 35 36 39 38 35 32 30 27 30 31 25 20 23 10 9 2 3 11 15 19 23 25 26 23 22 23 24 23
34 39 39 35 37 41 39 32 24 26 19 24 28 32 36 37 37 38 38 37 34 32 32 31 34 31 21 23 20 8 2 3 3 12 21 24 26 27 27 25 25 27 27
35 39 39 39 38 42 38 35 36 37 29 30 38 34 35 37 39 38 39 38 36 33 30 31 34 35 28 20 24 22 8 9 3 2 9 24 27 30 30 28 27 29 29
35 36 38 36 33 32 37 40 39 36 35 31 30 31 33 36 40 39 39 37 36 37 34 33 33 34 33 25 25 20 18 11 7 3 3 6 22 30 32 30 30 31 32
30 28 28 28 28 32 36 39 41 38 32 27 29 30 32 31 37 39 39 40 39 37 35 34 33 34 36 32 29 25 23 15 10 6 2 8 17 17 31 33 32 33 35
Wind_Direction
182 174 174 173 170 169 165 160 157 150 144 140 143 149 152 155 155 153 151 153 156 158 159 157 148 150 150 157 156 154 150 145 136 133 127 131 124 130 131 129 128 126 123
169 172 176 175 172 169 166 163 159 154 147 143 144 150 156 157 156 156 156 155 158 162 161 161 153 144 141 153 154 158 155 148 142 145 144 141 147 135 134 136 128 126 124
167 169 175 176 173 172 169 164 162 157 151 146 142 147 155 157 158 159 160 161 161 161 159 160 161 154 148 147 148 146 147 148 146 138 133 128 154 133 133 131 128 128 123
167 171 176 176 176 177 173 167 165 162 156 150 147 151 155 160 165 166 166 166 163 161 160 157 156 153 148 147 154 152 154 151 147 135 141 146 143 133 134 133 130 127 122
168 172 174 175 179 179 175 170 167 165 158 155 153 155 159 163 168 169 169 167 166 166 163 162 159 154 154 154 158 156 154 151 149 149 149 142 140 135 134 131 129 126 123
172 174 172 173 179 179 178 171 167 163 159 159 160 161 162 165 169 168 169 168 168 165 166 165 162 162 160 160 160 157 153 154 149 147 142 141 137 137 137 135 132 130 127
175 175 174 174 176 179 178 173 168 165 163 162 165 165 167 173 174 171 171 169 171 171 169 165 167 170 162 163 159 158 156 153 152 151 143 144 145 142 140 137 139 136 132
177 176 177 178 176 176 179 174 169 167 167 166 167 169 175 180 180 174 169 170 172 167 167 165 167 170 160 160 158 160 155 155 155 153 148 152 146 143 139 144 144 139 135
181 180 181 183 181 177 178 176 171 170 169 167 167 173 179 185 183 177 168 164 168 163 166 166 162 165 158 156 158 157 157 159 161 159 157 149 146 148 147 145 145 143 142
185 184 185 186 185 185 181 177 174 170 168 169 171 175 180 184 184 181 179 179 172 165 166 163 161 164 157 157 157 163 159 164 167 163 159 154 154 153 151 146 145 149 151
198 190 190 189 190 187 184 179 176 172 169 169 173 178 179 181 184 178 186 188 176 170 171 162 165 170 167 162 163 165 165 169 170 172 167 160 159 155 154 156 151 151 155
240 232 203 195 197 189 187 181 178 174 172 173 177 180 183 182 186 183 175 175 179 178 170 171 172 171 173 167 171 172 175 173 180 178 172 169 164 157 156 165 160 160 154
242 236 220 224 209 193 188 185 181 179 177 180 182 185 185 183 188 183 176 174 169 174 169 171 169 174 182 179 179 176 179 186 187 184 178 177 173 164 166 172 171 170 166
228 240 227 222 218 207 194 189 187 184 183 186 187 188 189 185 187 184 183 179 180 177 178 176 175 180 186 191 189 185 189 188 190 187 183 183 180 168 175 179 179 179 177
221 235 234 229 222 213 202 194 193 192 189 190 192 191 194 191 188 188 189 184 178 185 188 185 183 186 188 194 196 197 194 197 200 196 187 187 186 182 179 185 186 186 186
234 227 228 231 227 219 210 198 194 194 200 192 197 196 196 199 190 190 191 190 190 194 196 196 191 191 195 198 200 203 205 206 208 201 192 190 192 194 190 190 190 187 185
245 240 222 220 222 222 217 209 202 199 196 197 199 201 200 201 196 194 196 195 195 200 203 203 200 195 199 205 202 209 218 211 211 198 198 202 204 203 201 196 198 197 188
268 247 236 225 219 216 218 217 207 202 196 199 200 203 203 203 205 198 200 201 200 202 206 206 201 195 201 206 206 211 217 218 208 197 203 219 207 205 201 202 205 205 200
270 261 249 232 222 215 213 216 215 208 201 200 199 203 206 206 207 207 204 206 204 208 208 205 199 199 197 203 208 208 217 216 210 200 205 219 221 216 204 203 204 210 205
282 275 255 239 221 214 205 202 208 207 207 201 203 204 202 207 208 209 211 209 207 211 207 202 202 197 201 196 193 189 197 202 197 198 225 224 229 219 211 205 198 211 209
270 265 248 225 217 198 192 191 195 202 205 204 204 206 205 202 210 209 213 212 209 210 211 204 201 200 192 191 163 164 173 197 217 224 222 228 230 223 213 212 206 206 209
262 266 257 227 206 202 198 195 198 200 205 204 202 207 208 207 209 210 211 212 210 208 210 209 203 194 198 194 167 148 162 217 221 227 233 231 226 226 217 217 214 210 208
250 252 252 240 212 205 199 194 192 186 191 190 200 206 207 210 209 210 211 213 211 211 209 213 208 203 183 197 196 155 155 205 147 210 225 227 229 222 221 221 218 215 213
238 250 247 243 220 208 194 189 189 188 191 201 201 202 201 204 210 212 213 214 214 214 210 211 213 207 201 186 201 210 194 158 173 169 216 221 225 224 221 221 223 221 220
238 241 244 236 230 207 194 196 194 193 200 197 196 195 198 198 207 213 216 215 217 218 218 219 215 211 209 200 197 202 211 197 187 142 171 180 214 224 225 224 226 226 225
231 226 216 212 214 202 196 197 197 200 189 184 184 189 193 192 196 210 216 219 217 217 217 220 220 220 218 214 215 205 200 199 203 188 154 188 203 213 222 225 230 229 230
Height
741 747 751 753 754 756 759 762 764 764 764 765 767 770 774 777 780 782 785 787 789 791 794 797 799 800 802 804 805 807 808 810 813 817 820 821 821 820 821 826 827 830 831
736 743 751 754 757 757 759 762 764 765 765 766 768 772 775 778 781 784 786 787 790 792 795 797 800 801 803 805 806 807 809 811 813 816 817 822 824 824 825 828 829 832 835
739 744 750 754 757 758 759 760 763 765 766 767 769 773 776 779 782 784 786 789 790 793 796 798 799 802 803 805 807 809 811 811 814 816 818 820 828 827 830 831 832 836 837
736 743 749 754 757 759 759 759 762 764 766 768 770 774 777 780 782 784 787 790 792 794 796 798 800 802 804 805 808 809 812 814 815 818 821 825 830 831 832 834 836 838 839
735 740 747 752 756 758 759 759 761 763 765 768 771 774 778 780 782 785 788 791 793 795 797 800 801 803 805 805 809 811 814 817 817 819 823 828 831 833 835 837 838 840 841
736 740 743 747 754 758 760 760 761 763 765 768 772 775 778 781 783 785 789 791 793 795 798 800 803 803 805 808 810 811 814 819 819 822 826 830 832 835 837 839 841 843 844
736 741 744 746 749 755 758 759 760 762 765 768 772 775 779 781 784 787 790 792 794 796 798 801 803 806 805 809 812 815 816 820 823 826 829 831 834 837 839 840 844 845 847
739 741 744 748 747 752 756 757 759 761 764 767 771 775 779 782 786 788 790 792 795 797 800 802 803 807 806 809 813 817 819 821 825 828 831 833 836 838 841 843 846 847 849
740 743 747 751 752 751 753 756 757 759 762 766 770 775 779 783 786 789 791 793 795 798 800 803 804 807 808 810 814 818 821 824 826 829 832 834 838 841 843 845 847 849 850
741 744 746 750 752 754 754 755 757 758 761 765 769 774 778 782 786 789 792 793 796 798 801 803 804 808 809 812 814 819 821 825 830 831 834 836 839 842 846 848 848 850 853
745 742 745 748 750 752 754 755 757 758 760 764 769 773 777 781 784 788 791 793 796 798 801 802 805 808 810 813 815 819 822 825 830 833 834 837 840 843 846 850 850 851 853
753 755 751 748 752 751 754 755 756 757 759 762 767 771 775 779 783 787 790 793 796 799 802 804 806 807 809 813 815 819 822 825 830 833 836 837 840 843 846 850 852 854 855
751 752 753 756 756 753 753 755 755 756 758 762 766 770 774 777 782 786 789 793 796 799 801 804 806 808 812 814 816 818 821 826 829 832 836 837 840 843 847 850 852 855 855
745 748 750 753 755 757 754 754 754 754 756 759 763 768 772 775 779 784 788 791 795 799 801 803 805 808 812 815 817 819 821 824 828 832 835 838 841 842 846 849 852 854 856
737 742 745 749 752 754 754 755 755 756 755 757 760 765 769 772 776 781 786 790 794 798 801 803 805 809 810 814 817 820 822 825 827 831 835 838 840 843 845 848 851 854 856
730 730 734 741 747 749 750 749 751 753 757 757 758 761 765 771 773 779 784 788 793 796 799 802 804 808 810 813 816 819 821 824 827 830 833 837 840 843 844 846 850 852 856
722 723 725 727 732 741 745 746 745 748 751 754 756 759 763 768 772 776 781 786 790 794 798 801 804 807 810 813 816 819 821 822 826 830 833 837 839 842 844 846 848 851 853
718 717 718 719 721 725 732 739 741 745 746 750 754 757 760 764 770 773 778 782 787 791 794 798 802 805 809 812 814 817 821 823 825 828 831 835 837 840 843 845 848 850 852
713 710 710 710 712 716 721 729 735 739 743 745 750 753 756 761 766 770 774 778 783 788 792 796 800 803 807 811 814 815 818 821 824 826 829 832 834 838 840 843 846 849 852
705 704 702 705 704 708 715 722 731 736 741 741 745 748 752 756 761 766 771 775 779 784 788 793 797 800 804 809 814 816 818 820 823 825 826 829 829 836 838 841 844 848 850
697 695 695 694 695 704 709 715 723 726 731 735 738 744 747 751 756 761 766 771 775 779 783 789 794 798 802 807 812 817 818 819 821 823 824 826 827 833 837 840 843 846 848
685 684 683 685 688 692 700 700 710 717 724 729 734 738 744 746 751 755 760 765 769 774 779 783 788 793 798 802 807 813 817 819 819 820 822 824 826 829 835 837 841 844 846
675 674 674 676 679 682 687 698 705 714 721 726 730 732 734 740 744 749 755 760 764 768 772 778 783 787 792 799 802 806 814 813 815 816 819 821 824 826 829 834 837 841 843
661 662 663 665 669 670 679 687 692 696 704 708 712 720 727 732 738 743 749 755 759 764 768 772 778 783 786 792 799 801 802 804 810 815 816 817 819 823 824 828 832 836 840
650 650 652 655 659 662 670 676 682 688 693 698 707 714 721 725 730 738 743 750 754 758 763 768 773 778 782 786 789 794 798 801 803 806 810 814 816 817 820 823 826 830 835
637 640 645 646 649 655 663 668 674 681 685 694 700 708 714 719 723 731 737 742 747 752 757 763 767 772 776 780 784 787 789 795 798 799 802 805 807 811 814 817 821 824 828